When you browse on this site, cookies collect data to enhance your experience and personalize the content and advertising you see.
Visit our Privacy Policy to learn more. By continuing to use the site, you agree to this use of cookies and data.
  • In Romania
  • List of Countries
  • For 7 days
  • Water Temperature
  • Satellite Maps
  • Weather Map
  • Weather Widgets
  • user-avatar
    Login

    Hourly Weather Koronowo

    Today, 26 April, Friday

    Time Temperature Precipitation Wind Pressure Humidity
    00:00 +16°C° 0 mm 1 mps 750 mmHg 82%
    01:00 +16°C° 0 mm 1 mps 750 mmHg 82%
    02:00 +15°C° 0 mm 1 mps 750 mmHg 83%
    03:00 +15°C° 0 mm 2 mps 750 mmHg 85%
    04:00 +14°C° 0 mm 2 mps 749 mmHg 86%
    05:00 +16°C° 0 mm 2 mps 749 mmHg 82%
    06:00 +17°C° 0 mm 2 mps 749 mmHg 78%
    07:00 +19°C° 0 mm 2 mps 749 mmHg 70%
    08:00 +21°C° 0 mm 2 mps 749 mmHg 64%
    09:00 +22°C° 0 mm 3 mps 749 mmHg 57%
    10:00 +25°C° 0 mm 3 mps 748 mmHg 51%
    11:00 +26°C° 0 mm 3 mps 748 mmHg 48%
    12:00 +27°C° 0 mm 4 mps 748 mmHg 45%
    13:00 +27°C° 0 mm 4 mps 748 mmHg 41%
    14:00 +27°C° 0 mm 4 mps 747 mmHg 42%
    15:00 +27°C° 0 mm 3 mps 747 mmHg 44%
    16:00 +27°C° 0 mm 3 mps 747 mmHg 45%
    17:00 +25°C° 0 mm 3 mps 747 mmHg 50%
    18:00 +24°C° 0 mm 2 mps 746 mmHg 56%
    19:00 +21°C° 0 mm 2 mps 746 mmHg 61%
    20:00 +20°C° 0 mm 2 mps 746 mmHg 64%
    21:00 +19°C° 0 mm 2 mps 746 mmHg 67%
    22:00 +18°C° 0 mm 2 mps 746 mmHg 70%
    23:00 +18°C° 0 mm 2 mps 746 mmHg 71%

    Tomorrow, 27 April, Saturday

    Time Temperature Precipitation Wind Pressure Humidity
    00:00 +18°C° 0 mm 1 mps 746 mmHg 73%
    01:00 +18°C° 0 mm 1 mps 746 mmHg 74%
    02:00 +16°C° 0.3 mm 1 mps 746 mmHg 78%
    03:00 +16°C° 0.3 mm 1 mps 746 mmHg 82%
    04:00 +15°C° 0.3 mm 1 mps 746 mmHg 86%
    05:00 +14°C° 0.5 mm 3 mps 746 mmHg 87%
    06:00 +14°C° 0.5 mm 4 mps 747 mmHg 87%
    07:00 +14°C° 0.5 mm 5 mps 747 mmHg 88%
    08:00 +14°C° 0.3 mm 5 mps 747 mmHg 87%
    09:00 +14°C° 0.3 mm 6 mps 748 mmHg 86%
    10:00 +13°C° 0.3 mm 6 mps 748 mmHg 85%
    11:00 +13°C° 0 mm 6 mps 748 mmHg 83%
    12:00 +13°C° 0 mm 6 mps 749 mmHg 81%
    13:00 +13°C° 0 mm 5 mps 749 mmHg 80%
    14:00 +13°C° 0 mm 5 mps 749 mmHg 78%
    15:00 +13°C° 0 mm 5 mps 749 mmHg 76%
    16:00 +13°C° 0 mm 5 mps 749 mmHg 75%
    17:00 +13°C° 0 mm 4 mps 749 mmHg 74%
    18:00 +12°C° 0 mm 3 mps 749 mmHg 73%
    19:00 +12°C° 0 mm 3 mps 750 mmHg 72%
    20:00 +11°C° 0 mm 3 mps 750 mmHg 72%
    21:00 +10°C° 0 mm 2 mps 750 mmHg 73%
    22:00 +9°C° 0 mm 2 mps 750 mmHg 73%
    23:00 +9°C° 0 mm 2 mps 750 mmHg 73%

    Day after tomorrow, 28 April, Sunday

    Time Temperature Precipitation Wind Pressure Humidity
    00:00 +8°C° 0 mm 2 mps 750 mmHg 74%
    01:00 +8°C° 0 mm 2 mps 750 mmHg 74%
    02:00 +8°C° 0 mm 2 mps 750 mmHg 73%
    03:00 +8°C° 0 mm 2 mps 751 mmHg 72%
    04:00 +8°C° 0 mm 2 mps 751 mmHg 72%
    05:00 +9°C° 0 mm 3 mps 751 mmHg 72%
    06:00 +10°C° 0 mm 3 mps 751 mmHg 72%
    07:00 +11°C° 0 mm 4 mps 752 mmHg 73%
    08:00 +12°C° 0 mm 4 mps 752 mmHg 71%
    09:00 +13°C° 0 mm 4 mps 752 mmHg 70%
    10:00 +14°C° 0 mm 4 mps 753 mmHg 69%
    11:00 +15°C° 0 mm 4 mps 753 mmHg 66%
    12:00 +16°C° 0 mm 5 mps 753 mmHg 62%
    13:00 +16°C° 0 mm 5 mps 753 mmHg 59%
    14:00 +16°C° 0 mm 5 mps 753 mmHg 61%
    15:00 +15°C° 0 mm 5 mps 753 mmHg 63%
    16:00 +15°C° 0 mm 5 mps 753 mmHg 65%
    17:00 +14°C° 0.2 mm 4 mps 753 mmHg 70%
    18:00 +13°C° 0.2 mm 4 mps 753 mmHg 76%
    19:00 +12°C° 0.2 mm 3 mps 754 mmHg 82%
    20:00 +11°C° 0.4 mm 3 mps 754 mmHg 83%
    21:00 +11°C° 0.4 mm 4 mps 754 mmHg 84%
    22:00 +10°C° 0.4 mm 4 mps 754 mmHg 86%
    23:00 +10°C° 0.8 mm 4 mps 754 mmHg 87%

    29 April, Monday

    Time Temperature Precipitation Wind Pressure Humidity
    00:00 +8°C° 0.8 mm 4 mps 754 mmHg 89%
    01:00 +8°C° 0.8 mm 5 mps 754 mmHg 90%
    02:00 +8°C° 1 mm 5 mps 753 mmHg 91%
    03:00 +8°C° 1 mm 4 mps 753 mmHg 92%
    04:00 +8°C° 1 mm 4 mps 753 mmHg 93%
    05:00 +9°C° 0.2 mm 5 mps 753 mmHg 92%
    06:00 +10°C° 0.2 mm 5 mps 753 mmHg 92%
    07:00 +10°C° 0.2 mm 5 mps 753 mmHg 91%
    08:00 +13°C° 0 mm 5 mps 753 mmHg 83%
    09:00 +15°C° 0 mm 6 mps 753 mmHg 76%
    10:00 +17°C° 0 mm 6 mps 753 mmHg 68%
    11:00 +19°C° 0 mm 6 mps 753 mmHg 63%
    12:00 +20°C° 0 mm 6 mps 753 mmHg 57%
    13:00 +21°C° 0 mm 7 mps 753 mmHg 51%
    14:00 +20°C° 0 mm 7 mps 753 mmHg 52%
    15:00 +20°C° 0 mm 7 mps 752 mmHg 53%
    16:00 +18°C° 0 mm 7 mps 752 mmHg 53%
    17:00 +17°C° 0 mm 6 mps 753 mmHg 57%
    18:00 +15°C° 0 mm 6 mps 753 mmHg 61%
    19:00 +13°C° 0 mm 5 mps 753 mmHg 65%
    20:00 +12°C° 0 mm 5 mps 753 mmHg 65%
    21:00 +10°C° 0 mm 5 mps 754 mmHg 66%
    22:00 +9°C° 0 mm 5 mps 754 mmHg 66%
    23:00 +9°C° 0 mm 5 mps 754 mmHg 68%

    30 April, Tuesday

    Time Temperature Precipitation Wind Pressure Humidity
    00:00 +8°C° 0 mm 4 mps 754 mmHg 69%
    01:00 +7°C° 0 mm 4 mps 754 mmHg 71%
    02:00 +7°C° 0 mm 4 mps 754 mmHg 73%
    03:00 +6°C° 0 mm 4 mps 754 mmHg 74%
    04:00 +6°C° 0 mm 4 mps 754 mmHg 76%
    05:00 +7°C° 0 mm 4 mps 754 mmHg 73%
    06:00 +8°C° 0 mm 4 mps 754 mmHg 69%
    07:00 +10°C° 0 mm 4 mps 755 mmHg 66%
    08:00 +10°C° 0 mm 5 mps 755 mmHg 59%
    09:00 +13°C° 0 mm 5 mps 755 mmHg 53%
    10:00 +14°C° 0 mm 5 mps 755 mmHg 46%
    11:00 +15°C° 0 mm 5 mps 754 mmHg 44%
    12:00 +16°C° 0 mm 5 mps 754 mmHg 42%
    13:00 +16°C° 0 mm 5 mps 754 mmHg 40%
    14:00 +16°C° 0 mm 5 mps 754 mmHg 41%
    15:00 +16°C° 0 mm 5 mps 754 mmHg 42%
    16:00 +16°C° 0 mm 5 mps 754 mmHg 42%
    17:00 +14°C° 0 mm 4 mps 754 mmHg 47%
    18:00 +12°C° 0 mm 4 mps 754 mmHg 52%
    19:00 +10°C° 0 mm 3 mps 754 mmHg 57%
    20:00 +9°C° 0 mm 3 mps 754 mmHg 58%
    21:00 +8°C° 0 mm 3 mps 754 mmHg 59%
    22:00 +7°C° 0 mm 3 mps 754 mmHg 61%
    23:00 +7°C° 0 mm 2 mps 754 mmHg 62%

    1 May, Wednesday

    Time Temperature Precipitation Wind Pressure Humidity
    00:00 +6°C° 0 mm 2 mps 754 mmHg 64%
    01:00 +6°C° 0 mm 2 mps 754 mmHg 66%
    02:00 +6°C° 0 mm 2 mps 753 mmHg 66%
    03:00 +6°C° 0 mm 2 mps 753 mmHg 65%
    04:00 +6°C° 0 mm 2 mps 753 mmHg 65%
    05:00 +8°C° 0.1 mm 1 mps 753 mmHg 67%
    06:00 +8°C° 0.1 mm 1 mps 753 mmHg 70%
    07:00 +8°C° 0.1 mm 1 mps 753 mmHg 72%
    08:00 +9°C° 0.3 mm 1 mps 753 mmHg 72%
    09:00 +9°C° 0.3 mm 1 mps 752 mmHg 72%
    10:00 +10°C° 0.3 mm 1 mps 752 mmHg 72%
    11:00 +11°C° 0.2 mm 1 mps 752 mmHg 69%
    12:00 +12°C° 0.2 mm 2 mps 752 mmHg 66%
    13:00 +13°C° 0.2 mm 2 mps 751 mmHg 63%
    14:00 +12°C° 0.3 mm 2 mps 751 mmHg 68%
    15:00 +11°C° 0.3 mm 3 mps 751 mmHg 72%
    16:00 +11°C° 0.3 mm 3 mps 750 mmHg 76%
    17:00 +12°C° 0 mm 2 mps 750 mmHg 77%
    18:00 +10°C° 0 mm 2 mps 750 mmHg 79%
    19:00 +11°C° 0 mm 1 mps 749 mmHg 80%
    20:00 +10°C° 0.3 mm 2 mps 749 mmHg 83%
    21:00 +9°C° 0.3 mm 2 mps 749 mmHg 86%
    22:00 +9°C° 0.3 mm 3 mps 748 mmHg 89%
    23:00 +9°C° 0 mm 3 mps 748 mmHg 88%
    Show more